STARLINK-32264, 61642

Orbit data source: Space-Track

STARLINK-32264, 61642 is a payload satellite owned by SpaceX/Seattle (US) in LEO that was launched on Wed, 23 Oct 2024 UTC via an FALCON 9 launch vehicle from the Air Force Eastern Test Range (AFETR). Payload-class satellites include a variety of spacecraft equipped with specific instruments for various scientific and technological missions. These include communications satellites like Starlink; space stations such as the ISS; scientific satellites like the Hubble; Earth observation satellites from companies like Planet Labs, Umbra, and HawkEye 360; GPS; miniature CubeSats for education and research; and military/defense satellites.

Loading next visibility...
Identifier
61642, 2024-191X
Orbit
LEO
Country
Flag of USUS
Related business
Manufacturer
SpaceX/Seattle
Mission
Partially operational Commercial Communications
Bus & Motor
STARLINK V2M, Unknown motor
Mass
730 kg wet, ~700 kg dry
Launch date (UTC)
2024-10-23 (2 years ago)
Launch vehicle
FALCON 9
Launch site
Air Force Eastern Test Range (AFETR)
Object type
Payload
Rocket body
Debris
Shape & HBR
Box + 2 Pan, 17.7 m
Radar Cross Section
33.884 m², Large (>1 m²)

Expand to show TLE details & history
Last TLE update: 10 hours ago

TLE from 10 hours ago
0 STARLINK-32264
1 61642U 24191X   26256.03697928  .00118663  00000-0  69107-3 0  9992
2 61642  42.9843 133.9171 0027183 232.7649 127.0740 15.76803368106678
Epoch: 2026-09-13T00:53Z
TLE epoch observation values (Epoch: 2026-09-13T00:53:15.009Z)
Latitude
-0.00003°
Longitude
128.56714°
Altitude
350.311 km
Speed
7.694 km/s
True Right ascension
08h 55m 40s
True Declination
0° 00' 00"
Sunlit
Object was in daylight at epoch
Visualization orbit readout
Latitude
Unknown
Longitude
Unknown
Altitude
Unknown
Speed
Unknown
Apparent Right ascension
Unknown
Apparent Declination
Unknown
Sunlit
N/A
Visualization observer readout
Local Sidereal Time
03:06:30
Azimuth
Unknown
Elevation
Unknown
Doppler factor
Unknown
Orbital elements
Apogee altitude
359.76 km
Perigee altitude
323.228 km
Semi-major axis
6,719.631 km
Eccentricity
0.00272
Inclination
42.9843°
RAAN
133.9171°
Arg. of periapsis
232.7649°
True anomaly
127.32202°
Mean anomaly
127.074°
Eccentric anomaly
127.19806°
Mean motion
3.94026 °/min
Orbital period
91.36 mins
BSTAR
0.00069107
Loading maneuver chart data...
Computing Atmospheric mass density...
Loading historical data...
Loading historical data...
Loading historical data...
Loading historical data...
Loading historical data...
Loading historical data...
Loading historical data...

Documentation

Showing up to 5 results
|